STARLINK-11351 [DTC]

Last updated on Thu Nov 21 2024 00:02:06 GMT+0000 (Coordinated Universal Time)

1 61886U 24204N 24325.58335648 -.00409384 00000+0 -14366-2 0 9990 2 61886 53.1651 174.7727 0000608 68.0535 261.3106 15.89390586 3026
UTC large
Height (km)
Speed (km/s)
/
Latitude / Longitude
Inclination (degrees)
Orbital Period (minutes)
Azimuth
Elevation
Range (km)
Doppler Factor

Next 0 passes for location: London (51.5072 / 0.1276)

Sorry there are no passes over London.